Weather Roundup
Issued by NWS

Home | Current Version | Previous Version | Text Only | Print | Product List | Glossary On
Versions: 1 2 3 4 5 6 7 8 9 10 11 12 13 14 15 16 17 18 19 20 21 22 23 24 25 26 27 28 29 30 31 32 33 34 35 36 37 38 39 40 41 42 43 44 45 46 47 48 49 50
000
NZUS93 KARX 201110
HRRWXR

CURRENT HOURLY OBSERVATIONS ACROSS
MUCH OF THE UPPER MISSISSIPPI VALLEY
NATIONAL WEATHER SERVICE LA CROSSE WI
600 AM CDT SUN APR 20 2014


...SOUTHEAST MINNESOTA...


CITY           SKY/WX    TMP DP  RH WIND       PRES   REMARKS
ROCHESTER      LGT RAIN  53  48  83 S13       30.04F
ROCHESTER/MAYO CLOUDY    56  48  74 S9        30.04F
WINONA           N/A    N/A N/A N/A MISG        N/A
AUSTIN         LGT RAIN  54  48  82 S3        30.04R
ALBERT LEA     DRIZZLE   55  52  88 SE7       30.02S
DODGE CENTER   CLOUDY    55  52  88 S7        30.03S
PRESTON        LGT RAIN  57  44  61 S10       30.07R
OWATONNA       CLOUDY    54  48  82 SE7       30.01F
FARIBAULT      CLOUDY    54  48  82 CALM      30.03R HAZE
$$

...ELSEWHERE IN MINNESOTA...


CITY           SKY/WX    TMP DP  RH WIND       PRES   REMARKS
MINNEAPOLIS    CLOUDY    46  45  96 CALM      30.03R FOG
INTNL FALLS    CLEAR     28  25  88 SW3       30.01R
DULUTH         CLEAR     36  33  89 NW7       30.02S WCI  30
RED WING       CLOUDY    48  46  93 CALM      30.02S FOG
REDWOOD FALLS  MOCLDY    45  43  93 CALM      30.02R
MANKATO        CLOUDY    52  45  76 E6        30.01F
WORTHINGTON    MOCLDY    50  36  57 NE7       30.02F
FAIRMONT       CLOUDY    48  45  87 N3        30.02S
$$

...SOUTHWEST WISCONSIN...


CITY           SKY/WX    TMP DP  RH WIND       PRES   REMARKS
LA CROSSE      CLOUDY    61  38  42 S12       30.05S
PRAIRIE DU CHI CLOUDY    62  38  42 S7        30.09S
BOSCOBEL       CLOUDY    61  39  44 SW3       30.10F
LONE ROCK      CLOUDY    58  39  49 S3        30.13R
PLATTEVILLE    CLOUDY    55  38  54 S13       30.14S
FORT MC COY    CLOUDY    61  37  40 S3        30.08S
CAMP DOUGLAS   CLOUDY    60  39  45 S7        30.08S
VIROQUA        CLOUDY    57  41  56 S9        30.09S
WIS DELLS      CLOUDY    55  37  51 S10       30.11F
$$

...ELSEWHERE IN WISCONSIN...


CITY           SKY/WX    TMP DP  RH WIND       PRES   REMARKS
MILWAUKEE      MOCLDY    46  32  58 S7        30.19S
MADISON        CLOUDY    54  38  54 S9        30.15R
GREEN BAY      CLOUDY    50  41  71 S5        30.14F
EAU CLAIRE     CLOUDY    52  47  83 SE5       30.03R
BLACK RVR FLS  CLOUDY    62  35  37 S3        30.05S
MEDFORD        CLOUDY    48  42  80 S7        30.05S
WAUSAU         CLOUDY    49  42  77 S10       30.06F
WIS RAPIDS     CLOUDY    55  37  50 S3        30.10S
MARSHFIELD     LGT RAIN  51  43  74 S8        30.07S
RICE LAKE      FOG       43  42  97 CALM      30.05R VSB<1/4
$$

...NORTHEAST IOWA...


CITY           SKY/WX    TMP DP  RH WIND       PRES   REMARKS
WATERLOO       CLOUDY    57  40  52 S10       30.06F
DUBUQUE        CLOUDY    51  39  63 S12       30.12F
DECORAH        CLOUDY    59  41  51 S12G18    30.07S
MASON CITY     CLOUDY    56  47  71 S5        30.04S
CHARLES CITY   CLOUDY    57  43  58 S13       30.06R
OELWEIN        MOCLDY   N/A N/A N/A S14       30.08F
$$

...ELSEWHERE IN IOWA...


CITY           SKY/WX    TMP DP  RH WIND       PRES   REMARKS
DES MOINES     MOCLDY    58  44  60 S10       30.04F
IOWA CITY      CLOUDY    52  42  69 CALM      30.12F
FORT DODGE     MOCLDY    61  46  59 S9        30.00F
MARSHALLTOWN   RAIN      55  46  71 S9        30.06S
CEDAR RAPIDS   MOCLDY    56  41  57 S10       30.09F
$$

...NORTHERN ILLINOIS...


CITY           SKY/WX    TMP DP  RH WIND       PRES   REMARKS
CHICAGO-OHARE  PTCLDY    44  28  53 S7        30.21S
DUPAGE         PTCLDY    42  32  67 S6        30.21R
CHICAGO-MIDWAY PTCLDY    47  27  45 S7        30.22R
MOLINE         PTCLDY    51  36  56 S6        30.15S
ROCKFORD       MOCLDY    47  36  65 S10       30.21S
STERLING       MOCLDY    48  37  66 SE8       30.18S
PEORIA         PTCLDY    51  37  58 S6        30.20R
$$

NOTE: "FAIR" INDICATES FEW OR NO CLOUDS BELOW 12,000 FEET WITH NO
SIGNIFICANT WEATHER AND/OR OBSTRUCTIONS TO VISIBILITY. WIND
SPEEDS ARE IN MILES-PER-HOUR.



USA.gov is the U.S. government's official web portal to all federal, state and local government web resources and services.